Time,TemperatureF,DewpointF,PressureIn,WindDirection,WindDirectionDegrees,WindSpeedMPH,WindSpeedGustMPH,Humidity,HourlyPrecipIn,Conditions,Clouds,dailyrainin,SoftwareType,DateUTC
2013-08-09 00:01:00,72.3,68.2,29.77,WSW,248,1.1,1.1,87,0.00,FEW,,0.00,WeatherDisplay:10.37,2013-08-09 04:01:00,
2013-08-09 00:02:00,72.3,68.2,29.77,SW,225,1.1,1.1,87,0.00,FEW,,0.00,WeatherDisplay:10.37,2013-08-09 04:02:00,
2013-08-09 00:03:00,72.1,68.0,29.77,SW,225,2.7,2.7,87,0.00,FEW,,0.00,WeatherDisplay:10.37,2013-08-09 04:03:00,
2013-08-09 00:05:00,72.1,68.0,29.77,ESE,112,3.2,3.2,87,0.00,FEW,,0.00,WeatherDisplay:10.37,2013-08-09 04:05:00,
2013-08-09 00:10:00,72.0,68.2,29.77,SW,225,4.6,4.6,88,0.00,FEW,,0.00,WeatherDisplay:10.37,2013-08-09 04:10:00,
2013-08-09 00:15:00,72.0,68.2,29.77,West,270,3.5,3.5,88,0.00,FEW,,0.00,WeatherDisplay:10.37,2013-08-09 04:15:00,
2013-08-09 00:20:00,71.8,68.1,29.77,West,270,2.7,2.7,88,0.00,FEW,,0.00,WeatherDisplay:10.37,2013-08-09 04:20:00,
2013-08-09 00:25:00,71.8,68.1,29.77,SSW,202,4.6,4.6,88,0.00,FEW,,0.00,WeatherDisplay:10.37,2013-08-09 04:25:00,
2013-08-09 00:31:00,71.8,68.1,29.77,SW,225,3.7,3.7,88,0.00,FEW,,0.00,WeatherDisplay:10.37,2013-08-09 04:31:00,
2013-08-09 00:36:00,71.8,68.1,29.77,SW,225,4.6,4.6,88,0.00,FEW,,0.00,WeatherDisplay:10.37,2013-08-09 04:36:00,
2013-08-09 00:41:00,71.8,68.4,29.77,WSW,248,4.6,4.6,89,0.00,FEW,,0.00,WeatherDisplay:10.37,2013-08-09 04:41:00,
2013-08-09 00:46:00,71.8,68.4,29.77,South,180,3.5,3.5,89,0.00,FEW,,0.00,WeatherDisplay:10.37,2013-08-09 04:46:00,
2013-08-09 00:51:00,71.8,68.4,29.77,South,180,2.3,2.3,89,0.00,FEW,,0.00,WeatherDisplay:10.37,2013-08-09 04:51:00,
2013-08-09 00:56:00,71.8,68.4,29.77,WSW,248,3.5,3.5,89,0.00,FEW,,0.00,WeatherDisplay:10.37,2013-08-09 04:56:00,
2013-08-09 01:01:00,71.6,68.2,29.76,SW,225,3.5,3.5,89,0.00,FEW,,0.00,WeatherDisplay:10.37,2013-08-09 05:01:00,
2013-08-09 01:06:00,71.6,68.2,29.76,ESE,112,2.3,2.3,89,0.00,FEW,,0.00,WeatherDisplay:10.37,2013-08-09 05:06:00,
2013-08-09 01:11:00,71.6,68.5,29.76,WSW,248,4.6,4.6,90,0.00,FEW,,0.00,WeatherDisplay:10.37,2013-08-09 05:11:00,
2013-08-09 01:16:00,71.6,68.5,29.76,WSW,248,3.5,3.5,90,0.00,FEW,,0.00,WeatherDisplay:10.37,2013-08-09 05:16:00,
2013-08-09 01:21:00,71.6,68.5,29.76,WSW,248,3.5,3.5,90,0.00,FEW,,0.00,WeatherDisplay:10.37,2013-08-09 05:21:00,
2013-08-09 01:26:00,71.6,68.5,29.76,West,270,3.5,3.5,90,0.00,FEW,,0.00,WeatherDisplay:10.37,2013-08-09 05:26:00,
2013-08-09 01:31:00,71.6,68.5,29.76,SSW,202,2.7,2.7,90,0.00,CLR,,0.00,WeatherDisplay:10.37,2013-08-09 05:31:00,
2013-08-09 01:36:00,71.6,68.5,29.76,ESE,112,2.3,2.3,90,0.00,CLR,,0.00,WeatherDisplay:10.37,2013-08-09 05:36:00,
2013-08-09 01:41:00,71.6,68.5,29.76,SSW,202,1.7,1.7,90,0.00,CLR,,0.00,WeatherDisplay:10.37,2013-08-09 05:41:00,
2013-08-09 01:46:00,71.6,68.5,29.76,SW,225,3.5,3.5,90,0.00,CLR,,0.00,WeatherDisplay:10.37,2013-08-09 05:46:00,
2013-08-09 01:51:00,71.4,68.3,29.76,SSW,202,3.7,3.7,90,0.00,CLR,,0.00,WeatherDisplay:10.37,2013-08-09 05:51:00,
2013-08-09 01:56:00,71.4,68.3,29.76,WSW,248,2.3,2.3,90,0.00,CLR,,0.00,WeatherDisplay:10.37,2013-08-09 05:56:00,
2013-08-09 02:01:00,71.4,68.3,29.76,SW,225,3.2,3.2,90,0.00,FEW,,0.00,WeatherDisplay:10.37,2013-08-09 06:01:00,
2013-08-09 02:06:00,71.4,68.3,29.76,SW,225,2.3,2.3,90,0.00,FEW,,0.00,WeatherDisplay:10.37,2013-08-09 06:06:00,
2013-08-09 02:11:00,71.4,68.3,29.76,SW,225,2.3,2.3,90,0.00,FEW,,0.00,WeatherDisplay:10.37,2013-08-09 06:11:00,
2013-08-09 02:16:00,71.4,68.3,29.76,WSW,248,3.5,3.5,90,0.00,FEW,,0.00,WeatherDisplay:10.37,2013-08-09 06:16:00,
2013-08-09 02:21:00,71.4,68.3,29.76,SW,225,3.5,3.5,90,0.00,FEW,,0.00,WeatherDisplay:10.37,2013-08-09 06:21:00,
2013-08-09 02:26:00,71.6,68.5,29.76,SW,225,2.7,2.7,90,0.00,FEW,,0.00,WeatherDisplay:10.37,2013-08-09 06:26:00,
2013-08-09 02:31:00,71.6,68.5,29.76,SW,225,4.6,4.6,90,0.00,BKN,,0.00,WeatherDisplay:10.37,2013-08-09 06:31:00,
2013-08-09 02:36:00,71.6,68.5,29.76,SW,225,3.5,3.5,90,0.00,BKN,,0.00,WeatherDisplay:10.37,2013-08-09 06:36:00,
2013-08-09 02:41:00,71.6,68.5,29.76,WSW,248,3.5,3.5,90,0.00,BKN,,0.00,WeatherDisplay:10.37,2013-08-09 06:41:00,
2013-08-09 02:46:00,71.6,68.5,29.76,WSW,248,3.5,3.5,90,0.00,BKN,,0.00,WeatherDisplay:10.37,2013-08-09 06:46:00,
2013-08-09 02:51:00,71.6,68.5,29.76,SW,225,4.6,4.6,90,0.00,BKN,,0.00,WeatherDisplay:10.37,2013-08-09 06:51:00,
2013-08-09 02:56:00,71.6,68.5,29.76,SW,225,3.5,3.5,90,0.00,BKN,,0.00,WeatherDisplay:10.37,2013-08-09 06:56:00,
2013-08-09 03:01:00,71.6,68.5,29.76,SSW,202,3.5,3.5,90,0.00,BKN,,0.00,WeatherDisplay:10.37,2013-08-09 07:01:00,
2013-08-09 03:06:00,71.6,68.5,29.76,WSW,248,2.3,2.3,90,0.00,BKN,,0.00,WeatherDisplay:10.37,2013-08-09 07:06:00,
2013-08-09 03:11:00,71.6,68.5,29.76,SSW,202,3.5,3.5,90,0.00,BKN,,0.00,WeatherDisplay:10.37,2013-08-09 07:11:00,
2013-08-09 03:16:00,71.6,68.5,29.76,SW,225,3.5,3.5,90,0.00,BKN,,0.00,WeatherDisplay:10.37,2013-08-09 07:16:00,
2013-08-09 03:21:00,71.8,68.7,29.76,SSW,202,3.7,3.7,90,0.00,BKN,,0.00,WeatherDisplay:10.37,2013-08-09 07:21:00,
2013-08-09 03:26:00,71.8,68.7,29.76,SW,225,5.8,5.8,90,0.00,BKN,,0.00,WeatherDisplay:10.37,2013-08-09 07:26:00,
2013-08-09 03:31:00,71.8,68.7,29.76,SW,225,4.2,4.2,90,0.00,OVC,,0.00,WeatherDisplay:10.37,2013-08-09 07:31:00,
2013-08-09 03:36:00,72.0,68.9,29.76,SW,225,4.6,4.6,90,0.00,OVC,,0.00,WeatherDisplay:10.37,2013-08-09 07:36:00,
2013-08-09 03:41:00,72.0,68.9,29.76,West,270,3.5,3.7,90,0.00,OVC,,0.00,WeatherDisplay:10.37,2013-08-09 07:41:00,
2013-08-09 03:46:00,72.1,69.0,29.76,SSW,202,4.6,4.6,90,0.00,OVC,,0.00,WeatherDisplay:10.37,2013-08-09 07:46:00,
2013-08-09 03:51:00,72.1,69.0,29.76,SW,225,4.6,4.6,90,0.00,OVC,,0.00,WeatherDisplay:10.37,2013-08-09 07:51:00,
2013-08-09 03:56:00,72.1,69.0,29.76,WSW,248,4.6,4.6,90,0.00,OVC,,0.00,WeatherDisplay:10.37,2013-08-09 07:56:00,
2013-08-09 04:01:00,72.1,69.0,29.76,SW,225,3.5,3.5,90,0.00,OVC,,0.00,WeatherDisplay:10.37,2013-08-09 08:01:00,
2013-08-09 04:06:00,72.1,69.0,29.76,SW,225,1.1,1.1,90,0.00,OVC,,0.00,WeatherDisplay:10.37,2013-08-09 08:06:00,
2013-08-09 04:11:00,72.1,69.0,29.76,WSW,248,2.3,2.3,90,0.00,OVC,,0.00,WeatherDisplay:10.37,2013-08-09 08:11:00,
2013-08-09 04:16:00,72.1,69.0,29.76,SSW,202,2.7,2.7,90,0.00,OVC,,0.00,WeatherDisplay:10.37,2013-08-09 08:16:00,
2013-08-09 04:21:00,72.1,69.0,29.76,SW,225,2.3,2.3,90,0.00,OVC,,0.00,WeatherDisplay:10.37,2013-08-09 08:21:00,
2013-08-09 04:26:00,72.1,69.0,29.76,SW,225,2.3,2.3,90,0.00,OVC,,0.00,WeatherDisplay:10.37,2013-08-09 08:26:00,
2013-08-09 04:31:00,72.1,69.0,29.76,SSW,202,2.3,2.3,90,0.00,OVC,,0.00,WeatherDisplay:10.37,2013-08-09 08:31:00,
2013-08-09 04:36:00,72.1,69.0,29.76,SSW,202,1.1,0.0,90,0.00,OVC,,0.00,WeatherDisplay:10.37,2013-08-09 08:36:00,
2013-08-09 04:41:00,72.1,69.0,29.76,SW,225,2.3,2.3,90,0.00,OVC,,0.00,WeatherDisplay:10.37,2013-08-09 08:41:00,
2013-08-09 04:46:00,72.1,69.0,29.76,SW,225,2.3,2.3,90,0.00,OVC,,0.00,WeatherDisplay:10.37,2013-08-09 08:46:00,
2013-08-09 04:51:00,72.1,69.0,29.76,SSW,202,1.7,1.7,90,0.00,OVC,,0.00,WeatherDisplay:10.37,2013-08-09 08:51:00,
2013-08-09 04:56:00,72.1,69.0,29.76,West,270,2.3,2.3,90,0.00,OVC,,0.00,WeatherDisplay:10.37,2013-08-09 08:56:00,
2013-08-09 05:01:00,72.1,69.0,29.76,SW,225,1.1,1.1,90,0.00,OVC,,0.00,WeatherDisplay:10.37,2013-08-09 09:01:00,
2013-08-09 05:06:00,72.1,69.0,29.76,WSW,248,2.3,2.3,90,0.00,OVC,,0.00,WeatherDisplay:10.37,2013-08-09 09:06:00,
2013-08-09 05:11:00,72.1,69.0,29.76,SW,225,2.3,2.3,90,0.00,OVC,,0.00,WeatherDisplay:10.37,2013-08-09 09:11:00,
2013-08-09 05:16:00,72.1,69.0,29.76,WSW,248,2.3,2.3,90,0.00,OVC,,0.00,WeatherDisplay:10.37,2013-08-09 09:16:00,
2013-08-09 05:21:00,72.1,69.0,29.76,SSW,202,2.3,2.3,90,0.00,OVC,,0.00,WeatherDisplay:10.37,2013-08-09 09:21:00,
2013-08-09 05:26:00,72.1,69.0,29.75,SW,225,3.5,3.5,90,0.00,OVC,,0.00,WeatherDisplay:10.37,2013-08-09 09:26:00,
2013-08-09 05:31:00,72.1,69.0,29.75,SW,225,2.3,2.3,90,0.00,OVC,,0.00,WeatherDisplay:10.37,2013-08-09 09:31:00,
2013-08-09 05:36:00,72.0,68.9,29.75,SW,225,2.7,2.7,90,0.00,OVC,,0.00,WeatherDisplay:10.37,2013-08-09 09:36:00,
2013-08-09 05:41:00,72.0,68.9,29.75,SW,225,2.3,2.5,90,0.00,OVC,,0.00,WeatherDisplay:10.37,2013-08-09 09:41:00,
2013-08-09 05:46:00,72.0,68.9,29.75,SW,225,2.3,2.3,90,0.00,OVC,,0.00,WeatherDisplay:10.37,2013-08-09 09:46:00,
2013-08-09 05:51:00,72.0,68.9,29.75,SW,225,2.3,2.3,90,0.00,OVC,,0.00,WeatherDisplay:10.37,2013-08-09 09:51:00,
2013-08-09 05:57:00,72.0,68.9,29.75,SSW,202,2.3,2.3,90,0.00,OVC,,0.00,WeatherDisplay:10.37,2013-08-09 09:57:00,
2013-08-09 06:02:00,72.0,68.9,29.75,WSW,248,2.7,2.7,90,0.00,OVC,,0.00,WeatherDisplay:10.37,2013-08-09 10:02:00,
2013-08-09 06:07:00,72.0,68.9,29.75,South,180,2.3,2.3,90,0.00,OVC,,0.00,WeatherDisplay:10.37,2013-08-09 10:07:00,
2013-08-09 06:12:00,72.0,68.9,29.76,SW,225,0.0,0.0,90,0.00,OVC,,0.00,WeatherDisplay:10.37,2013-08-09 10:12:00,
2013-08-09 06:17:00,72.0,68.9,29.76,West,270,2.3,2.3,90,0.00,OVC,,0.00,WeatherDisplay:10.37,2013-08-09 10:17:00,
2013-08-09 06:22:00,72.0,68.9,29.75,SSW,202,2.3,2.3,90,0.00,OVC,,0.00,WeatherDisplay:10.37,2013-08-09 10:22:00,
2013-08-09 06:27:00,72.0,68.9,29.75,South,180,2.3,2.3,90,0.00,OVC,,0.00,WeatherDisplay:10.37,2013-08-09 10:27:00,
2013-08-09 06:32:00,72.0,68.9,29.75,SE,135,4.6,4.6,90,0.00,OVC,,0.00,WeatherDisplay:10.37,2013-08-09 10:32:00,
2013-08-09 06:37:00,72.0,69.2,29.76,SSW,202,4.7,4.7,91,0.00,OVC,,0.00,WeatherDisplay:10.37,2013-08-09 10:37:00,
2013-08-09 06:42:00,72.0,69.2,29.76,SW,225,4.6,4.6,91,0.00,OVC,,0.00,WeatherDisplay:10.37,2013-08-09 10:42:00,
2013-08-09 06:47:00,72.0,69.2,29.76,SW,225,5.8,5.8,91,0.00,OVC,,0.00,WeatherDisplay:10.37,2013-08-09 10:47:00,
2013-08-09 06:52:00,72.0,69.2,29.76,SSW,202,2.7,2.7,91,0.00,OVC,,0.00,WeatherDisplay:10.37,2013-08-09 10:52:00,
2013-08-09 06:57:00,72.0,69.2,29.76,SSW,202,3.5,3.5,91,0.00,OVC,,0.00,WeatherDisplay:10.37,2013-08-09 10:57:00,
2013-08-09 07:02:00,72.0,69.2,29.75,SW,225,3.7,3.7,91,0.00,-RA,,0.00,WeatherDisplay:10.37,2013-08-09 11:02:00,
2013-08-09 07:07:00,72.0,69.2,29.75,SW,225,3.5,3.5,91,0.00,-RA,,0.00,WeatherDisplay:10.37,2013-08-09 11:07:00,
2013-08-09 07:12:00,72.0,69.2,29.75,SSW,202,2.7,2.7,91,0.00,-RA,,0.00,WeatherDisplay:10.37,2013-08-09 11:12:00,
2013-08-09 07:17:00,72.0,69.2,29.75,SW,225,2.2,2.2,91,0.00,-RA,,0.00,WeatherDisplay:10.37,2013-08-09 11:17:00,
2013-08-09 07:22:00,72.0,69.2,29.75,SW,225,3.5,3.5,91,0.00,-RA,,0.00,WeatherDisplay:10.37,2013-08-09 11:22:00,
2013-08-09 07:27:00,72.0,69.2,29.75,SSW,202,2.3,2.3,91,0.00,-RA,,0.00,WeatherDisplay:10.37,2013-08-09 11:27:00,
2013-08-09 07:32:00,72.0,69.2,29.75,WSW,248,2.3,2.3,91,0.00,-RA,,0.00,WeatherDisplay:10.37,2013-08-09 11:32:00,
2013-08-09 07:37:00,72.0,69.2,29.75,South,180,3.2,3.2,91,0.00,-RA,,0.00,WeatherDisplay:10.37,2013-08-09 11:37:00,
2013-08-09 07:42:00,72.0,69.2,29.75,SW,225,3.5,3.5,91,0.00,-RA,,0.00,WeatherDisplay:10.37,2013-08-09 11:42:00,
2013-08-09 07:47:00,72.0,69.2,29.75,SW,225,4.2,4.2,91,0.00,-RA,,0.00,WeatherDisplay:10.37,2013-08-09 11:47:00,
2013-08-09 07:52:00,72.0,69.5,29.75,SW,225,3.7,3.7,92,0.00,-RA,,0.00,WeatherDisplay:10.37,2013-08-09 11:52:00,
2013-08-09 07:57:00,72.0,69.5,29.76,SW,225,5.8,5.8,92,0.00,-RA,,0.00,WeatherDisplay:10.37,2013-08-09 11:57:00,
2013-08-09 08:02:00,72.0,69.5,29.76,SW,225,4.6,4.6,92,0.00,-RA,,0.00,WeatherDisplay:10.37,2013-08-09 12:02:00,
2013-08-09 08:07:00,72.0,69.5,29.76,WSW,248,5.3,5.3,92,0.00,-RA,,0.00,WeatherDisplay:10.37,2013-08-09 12:07:00,
2013-08-09 08:12:00,72.1,69.6,29.75,SW,225,5.8,5.8,92,0.00,-RA,,0.00,WeatherDisplay:10.37,2013-08-09 12:12:00,
2013-08-09 08:17:00,72.1,69.6,29.75,WSW,248,5.8,5.8,92,0.00,-RA,,0.00,WeatherDisplay:10.37,2013-08-09 12:17:00,
2013-08-09 08:22:00,72.3,69.8,29.75,WSW,248,5.8,5.8,92,0.00,-RA,,0.00,WeatherDisplay:10.37,2013-08-09 12:22:00,
2013-08-09 08:27:00,72.3,69.8,29.75,South,180,4.6,4.6,92,0.00,-RA,,0.00,WeatherDisplay:10.37,2013-08-09 12:27:00,
2013-08-09 08:32:00,72.3,69.8,29.75,SW,225,4.6,4.6,92,0.00,OVC,,0.00,WeatherDisplay:10.37,2013-08-09 12:32:00,
2013-08-09 08:37:00,72.3,69.8,29.75,SW,225,4.6,4.6,92,0.00,OVC,,0.00,WeatherDisplay:10.37,2013-08-09 12:37:00,
2013-08-09 08:42:00,72.3,69.8,29.75,SW,225,5.8,5.8,92,0.00,OVC,,0.00,WeatherDisplay:10.37,2013-08-09 12:42:00,
2013-08-09 08:47:00,72.3,69.8,29.75,SW,225,5.8,5.8,92,0.00,OVC,,0.00,WeatherDisplay:10.37,2013-08-09 12:47:00,
2013-08-09 08:52:00,72.5,70.0,29.75,SW,225,5.3,5.3,92,0.00,OVC,,0.00,WeatherDisplay:10.37,2013-08-09 12:52:00,
2013-08-09 08:57:00,72.9,70.4,29.75,WSW,248,4.6,4.6,92,0.00,OVC,,0.00,WeatherDisplay:10.37,2013-08-09 12:57:00,
2013-08-09 09:02:00,72.9,70.1,29.75,SW,225,6.8,6.8,91,0.00,OVC,,0.00,WeatherDisplay:10.37,2013-08-09 13:02:00,
2013-08-09 09:07:00,72.9,70.1,29.75,SW,225,5.8,5.8,91,0.00,OVC,,0.00,WeatherDisplay:10.37,2013-08-09 13:07:00,
2013-08-09 09:12:00,72.9,70.1,29.75,South,180,5.8,5.8,91,0.00,OVC,,0.00,WeatherDisplay:10.37,2013-08-09 13:12:00,
2013-08-09 09:17:00,73.0,70.2,29.75,SW,225,4.6,4.6,91,0.00,OVC,,0.00,WeatherDisplay:10.37,2013-08-09 13:17:00,
2013-08-09 09:22:00,73.0,70.2,29.76,WSW,248,6.8,6.8,91,0.01,RA,,0.01,WeatherDisplay:10.37,2013-08-09 13:22:00,
2013-08-09 09:27:00,73.0,70.2,29.76,SW,225,5.8,5.8,91,0.01,RA,,0.01,WeatherDisplay:10.37,2013-08-09 13:27:00,
2013-08-09 09:32:00,73.2,70.4,29.76,SW,225,6.9,6.9,91,0.01,OVC,,0.01,WeatherDisplay:10.37,2013-08-09 13:32:00,
2013-08-09 09:37:00,73.0,70.2,29.76,SSW,202,5.8,5.8,91,0.01,OVC,,0.01,WeatherDisplay:10.37,2013-08-09 13:37:00,
2013-08-09 09:42:00,73.0,70.2,29.76,WSW,248,4.6,4.6,91,0.01,OVC,,0.01,WeatherDisplay:10.37,2013-08-09 13:42:00,
2013-08-09 09:47:00,73.0,70.2,29.76,West,270,4.6,4.6,91,0.01,OVC,,0.01,WeatherDisplay:10.37,2013-08-09 13:47:00,
2013-08-09 09:52:00,73.0,70.2,29.76,SW,225,5.8,5.8,91,0.01,OVC,,0.01,WeatherDisplay:10.37,2013-08-09 13:52:00,
2013-08-09 09:57:00,73.4,70.3,29.76,SW,225,6.9,6.9,90,0.01,OVC,,0.01,WeatherDisplay:10.37,2013-08-09 13:57:00,
2013-08-09 10:02:00,73.6,70.5,29.76,SW,225,5.8,5.8,90,0.01,OVC,,0.01,WeatherDisplay:10.37,2013-08-09 14:02:00,
2013-08-09 10:08:00,73.9,70.5,29.76,WSW,248,4.6,4.6,89,0.01,OVC,,0.01,WeatherDisplay:10.37,2013-08-09 14:08:00,
2013-08-09 10:13:00,74.3,70.5,29.76,WSW,248,5.8,5.8,88,0.01,OVC,,0.01,WeatherDisplay:10.37,2013-08-09 14:13:00,
2013-08-09 10:15:00,74.4,70.6,29.76,SW,230,5.0,6.0,88,0.00,OVC,,0.01,WeatherDisplay:10.37,2013-08-09 14:15:00,
2013-08-09 10:20:00,75.2,71.4,29.76,WSW,237,3.0,6.0,88,0.00,OVC,,0.01,WeatherDisplay:10.37,2013-08-09 14:20:00,
2013-08-09 10:25:00,74.5,70.7,29.76,SW,233,5.0,7.0,88,0.00,OVC,,0.01,WeatherDisplay:10.37,2013-08-09 14:25:00,
2013-08-09 10:30:00,75.0,71.2,29.76,SW,221,5.0,6.0,88,0.00,OVC,,0.01,WeatherDisplay:10.37,2013-08-09 14:30:00,
2013-08-09 10:35:00,75.2,71.1,29.76,SSW,213,6.0,6.0,87,0.00,OVC,,0.01,WeatherDisplay:10.37,2013-08-09 14:35:00,
2013-08-09 10:40:00,75.8,71.4,29.76,SSW,208,6.0,6.0,86,0.00,OVC,,0.01,WeatherDisplay:10.37,2013-08-09 14:40:00,
2013-08-09 10:45:00,75.7,70.9,29.76,SW,219,5.0,6.0,85,0.00,OVC,,0.01,WeatherDisplay:10.37,2013-08-09 14:45:00,
2013-08-09 10:50:00,78.1,71.5,29.76,SW,216,6.0,8.0,80,0.00,OVC,,0.01,WeatherDisplay:10.37,2013-08-09 14:50:00,
2013-08-09 10:55:00,77.3,70.6,29.76,SW,219,6.0,8.0,80,0.00,OVC,,0.01,WeatherDisplay:10.37,2013-08-09 14:55:00,
2013-08-09 11:00:00,76.8,70.9,29.76,SW,232,5.0,8.0,82,0.00,OVC,,0.01,WeatherDisplay:10.37,2013-08-09 15:00:00,
2013-08-09 11:05:00,77.4,71.1,29.76,WSW,242,6.0,9.0,81,0.00,BKN,,0.01,WeatherDisplay:10.37,2013-08-09 15:05:00,
2013-08-09 11:10:00,76.8,71.2,29.76,WSW,244,5.0,8.0,83,0.00,BKN,,0.01,WeatherDisplay:10.37,2013-08-09 15:10:00,
2013-08-09 11:15:00,77.0,70.7,29.76,SW,236,6.0,7.0,81,0.00,BKN,,0.01,WeatherDisplay:10.37,2013-08-09 15:15:00,
2013-08-09 11:20:00,77.0,70.7,29.76,SW,222,5.0,7.0,81,0.00,BKN,,0.01,WeatherDisplay:10.37,2013-08-09 15:20:00,
2013-08-09 11:25:00,77.4,70.7,29.76,SSW,202,5.8,5.8,80,0.00,BKN,,0.01,WeatherDisplay:10.37,2013-08-09 15:25:00,
2013-08-09 11:30:00,77.4,70.7,29.76,SSW,202,5.8,5.8,80,0.00,BKN,,0.01,WeatherDisplay:10.37,2013-08-09 15:30:00,
2013-08-09 11:35:00,77.7,70.7,29.75,SW,225,6.9,6.9,79,0.00, +RA,,0.01,WeatherDisplay:10.37,2013-08-09 15:35:00,
2013-08-09 11:40:00,79.2,71.4,29.75,West,270,6.3,6.3,77,0.00, +RA,,0.01,WeatherDisplay:10.37,2013-08-09 15:40:00,
2013-08-09 11:45:00,79.3,71.1,29.75,SW,225,5.8,5.8,76,0.00, +RA,,0.01,WeatherDisplay:10.37,2013-08-09 15:45:00,
2013-08-09 11:50:00,78.8,72.1,29.76,SSW,202,7.3,7.3,80,0.00, +RA,,0.01,WeatherDisplay:10.37,2013-08-09 15:50:00,
2013-08-09 11:55:00,77.0,71.1,29.76,SW,225,6.9,6.9,82,0.01, +RA,,0.02,WeatherDisplay:10.37,2013-08-09 15:55:00,
2013-08-09 12:00:00,76.6,71.4,29.76,SW,225,3.5,3.5,84,0.02, +RA,,0.03,WeatherDisplay:10.37,2013-08-09 16:00:00,
2013-08-09 12:05:00,75.7,70.9,29.76,WSW,248,2.7,2.7,85,0.11,RA,,0.12,WeatherDisplay:10.37,2013-08-09 16:05:00,
2013-08-09 12:10:00,76.1,70.9,29.76,WSW,248,2.7,2.7,84,0.12,RA,,0.13,WeatherDisplay:10.37,2013-08-09 16:10:00,
2013-08-09 12:15:00,75.6,70.8,29.76,WSW,248,6.9,6.9,85,0.12,RA,,0.13,WeatherDisplay:10.37,2013-08-09 16:15:00,
2013-08-09 12:20:00,75.4,70.6,29.76,WSW,248,5.8,5.8,85,0.12,OVC,,0.13,WeatherDisplay:10.37,2013-08-09 16:20:00,
2013-08-09 12:25:00,75.0,70.2,29.76,West,270,5.8,5.8,85,0.12,OVC,,0.13,WeatherDisplay:10.37,2013-08-09 16:25:00,
2013-08-09 12:30:00,75.0,70.5,29.76,SW,225,5.8,5.8,86,0.12,OVC,,0.13,WeatherDisplay:10.37,2013-08-09 16:30:00,
2013-08-09 12:35:00,75.0,70.5,29.76,West,270,4.6,4.6,86,0.12,OVC,,0.13,WeatherDisplay:10.37,2013-08-09 16:35:00,
2013-08-09 12:40:00,75.0,70.9,29.76,West,270,6.9,6.9,87,0.13,RA,,0.14,WeatherDisplay:10.37,2013-08-09 16:40:00,
2013-08-09 12:45:00,75.0,70.9,29.76,West,270,9.2,9.2,87,0.13,RA,,0.14,WeatherDisplay:10.37,2013-08-09 16:45:00,
2013-08-09 12:50:00,72.9,69.8,29.76,West,270,17.1,17.1,90,0.23,RA,,0.26,WeatherDisplay:10.37,2013-08-09 16:50:00,
2013-08-09 12:55:00,72.1,69.3,29.76,West,270,11.5,11.5,91,0.31,RA,,0.33,WeatherDisplay:10.37,2013-08-09 16:55:00,
2013-08-09 13:00:00,72.1,69.3,29.77,WSW,248,7.8,7.8,91,0.30,RA,,0.33,WeatherDisplay:10.37,2013-08-09 17:00:00,
2013-08-09 13:05:00,72.3,69.5,29.77,SW,225,12.7,12.7,91,0.21,OVC,,0.33,WeatherDisplay:10.37,2013-08-09 17:05:00,
2013-08-09 13:10:00,72.5,69.7,29.77,West,270,12.7,12.7,91,0.20,OVC,,0.33,WeatherDisplay:10.37,2013-08-09 17:10:00,
2013-08-09 13:15:00,72.9,70.1,29.77,WSW,248,12.7,12.7,91,0.20,OVC,,0.33,WeatherDisplay:10.37,2013-08-09 17:15:00,
2013-08-09 13:20:00,72.9,70.1,29.77,West,270,10.4,10.4,91,0.20,OVC,,0.33,WeatherDisplay:10.37,2013-08-09 17:20:00,
2013-08-09 13:25:00,73.2,70.4,29.77,WSW,248,10.4,10.4,91,0.20,OVC,,0.33,WeatherDisplay:10.37,2013-08-09 17:25:00,
2013-08-09 13:30:00,73.6,70.8,29.77,SW,225,9.2,9.2,91,0.20,OVC,,0.33,WeatherDisplay:10.37,2013-08-09 17:30:00,
2013-08-09 13:35:00,73.9,71.1,29.77,WSW,248,12.7,12.7,91,0.20,OVC,,0.33,WeatherDisplay:10.37,2013-08-09 17:35:00,
2013-08-09 13:40:00,74.7,71.6,29.77,West,270,10.4,10.4,90,0.19,OVC,,0.33,WeatherDisplay:10.37,2013-08-09 17:40:00,
2013-08-09 13:45:00,75.0,71.5,29.76,WSW,248,10.4,10.4,89,0.19,OVC,,0.33,WeatherDisplay:10.37,2013-08-09 17:45:00,
2013-08-09 13:50:00,74.8,71.3,29.76,West,270,11.5,11.5,89,0.09,OVC,,0.33,WeatherDisplay:10.37,2013-08-09 17:50:00,
2013-08-09 13:55:00,75.0,71.2,29.76,West,270,9.4,9.4,88,0.00,OVC,,0.33,WeatherDisplay:10.37,2013-08-09 17:55:00,
2013-08-09 14:00:00,74.1,70.6,29.76,SW,225,11.5,11.5,89,0.00,OVC,,0.33,WeatherDisplay:10.37,2013-08-09 18:00:00,
2013-08-09 14:05:00,75.0,71.2,29.76,WSW,248,12.7,12.7,88,0.00,OVC,,0.33,WeatherDisplay:10.37,2013-08-09 18:05:00,
2013-08-09 14:11:00,75.7,70.9,29.76,West,270,16.1,16.1,85,0.00,OVC,,0.33,WeatherDisplay:10.37,2013-08-09 18:11:00,
2013-08-09 14:16:00,76.3,71.5,29.76,WSW,248,12.7,12.7,85,0.00,OVC,,0.33,WeatherDisplay:10.37,2013-08-09 18:16:00,
2013-08-09 14:21:00,76.3,71.1,29.77,West,270,9.2,9.2,84,0.00,OVC,,0.33,WeatherDisplay:10.37,2013-08-09 18:21:00,
2013-08-09 14:26:00,75.7,70.2,29.77,West,270,12.7,12.7,83,0.00,OVC,,0.33,WeatherDisplay:10.37,2013-08-09 18:26:00,
2013-08-09 14:31:00,75.6,70.1,29.77,WSW,248,11.5,11.5,83,0.00,BKN,,0.33,WeatherDisplay:10.37,2013-08-09 18:31:00,
2013-08-09 14:36:00,75.4,70.2,29.77,SW,225,10.4,10.4,84,0.00,BKN,,0.33,WeatherDisplay:10.37,2013-08-09 18:36:00,
2013-08-09 14:41:00,75.4,70.2,29.77,WSW,248,10.4,10.4,84,0.00,BKN,,0.33,WeatherDisplay:10.37,2013-08-09 18:41:00,
2013-08-09 14:46:00,75.4,70.2,29.77,West,270,10.4,10.4,84,0.00,BKN,,0.33,WeatherDisplay:10.37,2013-08-09 18:46:00,
2013-08-09 14:51:00,75.0,69.8,29.77,WSW,248,9.2,9.2,84,0.00,BKN,,0.33,WeatherDisplay:10.37,2013-08-09 18:51:00,
2013-08-09 14:56:00,74.8,69.6,29.77,SW,225,11.5,11.5,84,0.00,BKN,,0.33,WeatherDisplay:10.37,2013-08-09 18:56:00,
2013-08-09 15:01:00,74.3,69.1,29.77,SW,225,10.9,10.9,84,0.00,BKN,,0.33,WeatherDisplay:10.37,2013-08-09 19:01:00,
2013-08-09 15:06:00,74.1,69.3,29.77,WSW,248,10.4,10.4,85,0.00,BKN,,0.33,WeatherDisplay:10.37,2013-08-09 19:06:00,
2013-08-09 15:11:00,73.9,69.4,29.78,West,270,6.8,6.8,86,0.00,BKN,,0.33,WeatherDisplay:10.37,2013-08-09 19:11:00,
2013-08-09 15:16:00,73.8,69.3,29.78,WSW,248,8.1,8.1,86,0.00,BKN,,0.33,WeatherDisplay:10.37,2013-08-09 19:16:00,
2013-08-09 15:21:00,73.6,69.2,29.78,WSW,248,8.1,8.1,86,0.00,BKN,,0.33,WeatherDisplay:10.37,2013-08-09 19:21:00,
2013-08-09 15:26:00,73.9,69.1,29.78,WSW,248,9.4,9.4,85,0.00,BKN,,0.33,WeatherDisplay:10.37,2013-08-09 19:26:00,
2013-08-09 15:32:00,74.7,69.5,29.78,WSW,248,12.7,12.7,84,0.00,OVC,,0.33,WeatherDisplay:10.37,2013-08-09 19:32:00,
2013-08-09 15:37:00,75.2,69.7,29.77,WSW,248,8.1,8.1,83,0.00,OVC,,0.33,WeatherDisplay:10.37,2013-08-09 19:37:00,
2013-08-09 15:42:00,75.4,69.2,29.77,North,360,9.2,9.2,81,0.00,OVC,,0.33,WeatherDisplay:10.37,2013-08-09 19:42:00,
2013-08-09 15:47:00,75.4,69.2,29.77,North,360,9.2,9.2,81,0.00,OVC,,0.33,WeatherDisplay:10.37,2013-08-09 19:47:00,
2013-08-09 15:52:00,75.7,69.1,29.77,SW,225,16.1,16.1,80,0.00,OVC,,0.33,WeatherDisplay:10.37,2013-08-09 19:52:00,
2013-08-09 15:57:00,75.6,69.4,29.77,West,270,12.7,12.7,81,0.00,OVC,,0.33,WeatherDisplay:10.37,2013-08-09 19:57:00,
2013-08-09 16:02:00,75.7,69.5,29.77,SW,225,9.2,9.2,81,0.00,BKN,,0.33,WeatherDisplay:10.37,2013-08-09 20:02:00,
2013-08-09 16:07:00,75.6,68.6,29.77,West,270,12.7,12.7,79,0.00,BKN,,0.33,WeatherDisplay:10.37,2013-08-09 20:07:00,
2013-08-09 16:12:00,76.3,69.3,29.77,West,270,9.2,9.2,79,0.00,BKN,,0.33,WeatherDisplay:10.37,2013-08-09 20:12:00,
2013-08-09 16:17:00,76.3,68.9,29.77,West,270,9.2,9.2,78,0.00,BKN,,0.33,WeatherDisplay:10.37,2013-08-09 20:17:00,
2013-08-09 16:22:00,76.1,68.7,29.77,West,270,6.9,6.9,78,0.00,BKN,,0.33,WeatherDisplay:10.37,2013-08-09 20:22:00,
2013-08-09 16:27:00,76.5,69.1,29.77,WSW,248,7.8,7.8,78,0.00,BKN,,0.33,WeatherDisplay:10.37,2013-08-09 20:27:00,
2013-08-09 16:32:00,77.0,69.6,29.77,WSW,248,8.3,8.3,78,0.00,BKN,,0.33,WeatherDisplay:10.37,2013-08-09 20:32:00,
2013-08-09 16:37:00,76.5,68.7,29.77,SW,225,10.4,10.8,77,0.00,BKN,,0.33,WeatherDisplay:10.37,2013-08-09 20:37:00,
2013-08-09 16:42:00,76.6,69.2,29.77,West,270,9.2,9.2,78,0.00,BKN,,0.33,WeatherDisplay:10.37,2013-08-09 20:42:00,
2013-08-09 16:47:00,76.8,69.4,29.77,North,360,7.3,7.3,78,0.00,BKN,,0.33,WeatherDisplay:10.37,2013-08-09 20:47:00,
2013-08-09 16:52:00,76.8,69.0,29.77,West,270,9.2,9.2,77,0.00,BKN,,0.33,WeatherDisplay:10.37,2013-08-09 20:52:00,
2013-08-09 16:57:00,76.8,69.0,29.77,SSW,202,7.3,7.3,77,0.00,BKN,,0.33,WeatherDisplay:10.37,2013-08-09 20:57:00,
2013-08-09 17:02:00,76.6,68.8,29.78,WNW,292,8.3,8.3,77,0.00,OVC,,0.33,WeatherDisplay:10.37,2013-08-09 21:02:00,
2013-08-09 17:03:00,76.6,68.8,29.78,West,270,8.1,8.1,77,0.00,OVC,,0.33,WeatherDisplay:10.37,2013-08-09 21:03:00,
2013-08-09 17:08:00,76.1,68.7,29.78,West,270,8.1,8.1,78,0.00,OVC,,0.33,WeatherDisplay:10.37,2013-08-09 21:08:00,
2013-08-09 17:13:00,76.3,69.3,29.78,WNW,292,8.1,8.1,79,0.00,OVC,,0.33,WeatherDisplay:10.37,2013-08-09 21:13:00,
2013-08-09 17:17:00,75.9,68.9,29.78,West,270,10.4,10.4,79,0.00,OVC,,0.33,WeatherDisplay:10.37,2013-08-09 21:17:00,
2013-08-09 17:22:00,75.6,68.6,29.78,West,270,9.2,9.2,79,0.00,OVC,,0.33,WeatherDisplay:10.37,2013-08-09 21:22:00,
2013-08-09 17:27:00,76.1,68.7,29.78,NW,315,6.9,6.9,78,0.00,OVC,,0.33,WeatherDisplay:10.37,2013-08-09 21:27:00,
2013-08-09 17:32:00,76.5,69.1,29.78,West,270,8.1,8.1,78,0.00,OVC,,0.33,WeatherDisplay:10.37,2013-08-09 21:32:00,
2013-08-09 17:37:00,77.2,69.0,29.78,West,270,7.8,7.8,76,0.00,OVC,,0.33,WeatherDisplay:10.37,2013-08-09 21:37:00,
2013-08-09 17:42:00,76.6,68.5,29.78,West,270,9.2,9.2,76,0.00,OVC,,0.33,WeatherDisplay:10.37,2013-08-09 21:42:00,
2013-08-09 17:47:00,76.6,68.8,29.78,West,270,8.8,8.8,77,0.00,OVC,,0.33,WeatherDisplay:10.37,2013-08-09 21:47:00,
2013-08-09 17:52:00,76.5,68.4,29.78,WSW,248,6.9,6.9,76,0.00,OVC,,0.33,WeatherDisplay:10.37,2013-08-09 21:52:00,
2013-08-09 17:57:00,76.3,68.2,29.78,West,270,11.5,11.5,76,0.00,OVC,,0.33,WeatherDisplay:10.37,2013-08-09 21:57:00,
2013-08-09 18:02:00,76.5,68.4,29.79,West,270,5.8,5.8,76,0.00,OVC,,0.33,WeatherDisplay:10.37,2013-08-09 22:02:00,
2013-08-09 18:07:00,76.5,68.4,29.79,WSW,248,9.4,9.4,76,0.00,OVC,,0.33,WeatherDisplay:10.37,2013-08-09 22:07:00,
2013-08-09 18:12:00,76.6,68.1,29.78,West,270,8.3,8.3,75,0.00,OVC,,0.33,WeatherDisplay:10.37,2013-08-09 22:12:00,
2013-08-09 18:17:00,77.2,68.7,29.78,West,270,8.3,8.3,75,0.00,OVC,,0.33,WeatherDisplay:10.37,2013-08-09 22:17:00,
2013-08-09 18:22:00,77.4,68.5,29.79,West,270,8.1,8.1,74,0.00,OVC,,0.33,WeatherDisplay:10.37,2013-08-09 22:22:00,
2013-08-09 18:27:00,77.9,68.5,29.79,WSW,248,6.9,7.0,73,0.00,OVC,,0.33,WeatherDisplay:10.37,2013-08-09 22:27:00,
2013-08-09 18:32:00,78.3,68.5,29.79,West,270,6.9,6.9,72,0.00,OVC,,0.33,WeatherDisplay:10.37,2013-08-09 22:32:00,
2013-08-09 18:37:00,79.0,68.8,29.79,WSW,248,8.3,8.3,71,0.00,OVC,,0.33,WeatherDisplay:10.37,2013-08-09 22:37:00,
2013-08-09 18:42:00,78.3,68.1,29.79,West,270,7.3,7.3,71,0.00,OVC,,0.33,WeatherDisplay:10.37,2013-08-09 22:42:00,
2013-08-09 18:47:00,78.1,68.3,29.79,West,270,4.6,4.6,72,0.00,OVC,,0.33,WeatherDisplay:10.37,2013-08-09 22:47:00,
2013-08-09 18:52:00,78.1,68.3,29.79,SW,225,5.8,5.8,72,0.00,OVC,,0.33,WeatherDisplay:10.37,2013-08-09 22:52:00,
2013-08-09 18:57:00,77.9,68.1,29.79,WSW,248,5.8,5.8,72,0.00,OVC,,0.33,WeatherDisplay:10.37,2013-08-09 22:57:00,
2013-08-09 19:02:00,78.1,68.7,29.79,WSW,248,4.6,4.6,73,0.00,OVC,,0.33,WeatherDisplay:10.37,2013-08-09 23:02:00,
2013-08-09 19:07:00,77.7,68.4,29.79,WSW,248,5.8,5.8,73,0.00,OVC,,0.33,WeatherDisplay:10.37,2013-08-09 23:07:00,
2013-08-09 19:12:00,77.5,67.8,29.79,West,270,6.9,6.9,72,0.00,OVC,,0.33,WeatherDisplay:10.37,2013-08-09 23:12:00,
2013-08-09 19:17:00,77.9,68.1,29.79,West,270,5.3,5.3,72,0.00,OVC,,0.33,WeatherDisplay:10.37,2013-08-09 23:17:00,
2013-08-09 19:22:00,77.4,68.1,29.79,WSW,248,5.3,5.3,73,0.00,OVC,,0.33,WeatherDisplay:10.37,2013-08-09 23:22:00,
2013-08-09 19:27:00,76.8,67.9,29.79,WSW,248,4.6,4.6,74,0.00,OVC,,0.33,WeatherDisplay:10.37,2013-08-09 23:27:00,
2013-08-09 19:32:00,77.2,68.3,29.79,WSW,248,5.8,5.8,74,0.00,CLR,,0.33,WeatherDisplay:10.37,2013-08-09 23:32:00,
2013-08-09 19:37:00,77.5,68.6,29.80,SW,225,2.7,2.7,74,0.00,CLR,,0.33,WeatherDisplay:10.37,2013-08-09 23:37:00,
2013-08-09 19:42:00,77.2,68.3,29.80,SW,225,3.2,3.2,74,0.00,CLR,,0.33,WeatherDisplay:10.37,2013-08-09 23:42:00,
2013-08-09 19:47:00,76.5,68.7,29.80,West,270,5.8,5.8,77,0.00,CLR,,0.33,WeatherDisplay:10.37,2013-08-09 23:47:00,
2013-08-09 19:52:00,75.7,67.6,29.80,West,270,4.7,4.7,76,0.00,CLR,,0.33,WeatherDisplay:10.37,2013-08-09 23:52:00,
2013-08-09 19:57:00,75.6,67.5,29.80,West,270,4.6,4.6,76,0.00,CLR,,0.33,WeatherDisplay:10.37,2013-08-09 23:57:00,
2013-08-09 20:02:00,75.4,67.7,29.80,WSW,248,3.2,3.2,77,0.00,BKN,,0.33,WeatherDisplay:10.37,2013-08-10 00:02:00,
2013-08-09 20:07:00,75.2,67.5,29.80,WSW,248,3.2,3.2,77,0.00,BKN,,0.33,WeatherDisplay:10.37,2013-08-10 00:07:00,
2013-08-09 20:12:00,74.8,67.8,29.81,SW,225,2.7,2.7,79,0.00,BKN,,0.33,WeatherDisplay:10.37,2013-08-10 00:12:00,
2013-08-09 20:17:00,74.7,67.8,29.81,WSW,248,2.7,2.7,79,0.00,BKN,,0.33,WeatherDisplay:10.37,2013-08-10 00:17:00,
2013-08-09 20:22:00,74.7,68.1,29.81,SW,225,2.3,2.3,80,0.00,BKN,,0.33,WeatherDisplay:10.37,2013-08-10 00:22:00,
2013-08-09 20:27:00,74.3,67.7,29.81,SW,225,2.3,2.6,80,0.00,BKN,,0.33,WeatherDisplay:10.37,2013-08-10 00:27:00,
2013-08-09 20:32:00,73.8,67.6,29.81,SSW,202,2.7,2.7,81,0.00,BKN,,0.33,WeatherDisplay:10.37,2013-08-10 00:32:00,
2013-08-09 20:37:00,73.8,67.2,29.81,SW,225,2.3,2.3,80,0.00,BKN,,0.33,WeatherDisplay:10.37,2013-08-10 00:37:00,
2013-08-09 20:42:00,73.6,68.1,29.81,SW,225,0.0,0.0,83,0.00,BKN,,0.33,WeatherDisplay:10.37,2013-08-10 00:42:00,
2013-08-09 20:47:00,72.9,67.8,29.81,West,270,2.3,2.3,84,0.00,BKN,,0.33,WeatherDisplay:10.37,2013-08-10 00:47:00,
2013-08-09 20:52:00,72.3,67.5,29.81,WSW,248,2.7,2.7,85,0.00,BKN,,0.33,WeatherDisplay:10.37,2013-08-10 00:52:00,
2013-08-09 20:57:00,72.1,67.0,29.81,SW,225,2.7,2.8,84,0.00,BKN,,0.33,WeatherDisplay:10.37,2013-08-10 00:57:00,
2013-08-09 21:02:00,72.1,67.0,29.82,SSW,202,3.5,3.5,84,0.00,BKN,,0.33,WeatherDisplay:10.37,2013-08-10 01:02:00,
2013-08-09 21:07:00,72.0,66.9,29.82,SW,225,2.3,2.3,84,0.00,BKN,,0.33,WeatherDisplay:10.37,2013-08-10 01:07:00,
2013-08-09 21:12:00,71.8,66.7,29.82,SW,225,2.7,2.7,84,0.00,BKN,,0.33,WeatherDisplay:10.37,2013-08-10 01:12:00,
2013-08-09 21:17:00,71.8,67.0,29.82,WSW,248,2.7,2.7,85,0.00,BKN,,0.33,WeatherDisplay:10.37,2013-08-10 01:17:00,
2013-08-09 21:22:00,71.4,66.7,29.83,WSW,248,3.5,3.5,85,0.00,BKN,,0.33,WeatherDisplay:10.37,2013-08-10 01:22:00,
2013-08-09 21:27:00,71.4,66.7,29.83,West,270,0.0,0.0,85,0.00,BKN,,0.33,WeatherDisplay:10.37,2013-08-10 01:27:00,
2013-08-09 21:32:00,71.2,66.5,29.83,West,270,0.0,0.0,85,0.00,BKN,,0.33,WeatherDisplay:10.37,2013-08-10 01:32:00,
2013-08-09 21:37:00,71.2,66.5,29.83,West,270,0.0,0.0,85,0.00,BKN,,0.33,WeatherDisplay:10.37,2013-08-10 01:37:00,
2013-08-09 21:42:00,70.9,66.2,29.83,SW,225,2.7,2.7,85,0.00,BKN,,0.33,WeatherDisplay:10.37,2013-08-10 01:42:00,
2013-08-09 21:47:00,70.9,66.2,29.84,WSW,248,2.7,3.0,85,0.00,BKN,,0.33,WeatherDisplay:10.37,2013-08-10 01:47:00,
2013-08-09 21:52:00,70.9,66.2,29.84,WSW,248,2.3,2.3,85,0.00,BKN,,0.33,WeatherDisplay:10.37,2013-08-10 01:52:00,
2013-08-09 21:57:00,70.9,66.2,29.84,SW,225,2.7,2.7,85,0.00,BKN,,0.33,WeatherDisplay:10.37,2013-08-10 01:57:00,
2013-08-09 22:02:00,70.7,66.3,29.84,SW,225,2.3,2.3,86,0.00,CLR,,0.33,WeatherDisplay:10.37,2013-08-10 02:02:00,
2013-08-09 22:07:00,70.5,66.1,29.84,SW,225,1.1,1.1,86,0.00,CLR,,0.33,WeatherDisplay:10.37,2013-08-10 02:07:00,
2013-08-09 22:12:00,70.5,66.1,29.84,SW,225,0.0,0.0,86,0.00,CLR,,0.33,WeatherDisplay:10.37,2013-08-10 02:12:00,
2013-08-09 22:17:00,70.2,65.8,29.84,WSW,248,0.0,0.0,86,0.00,CLR,,0.33,WeatherDisplay:10.37,2013-08-10 02:17:00,
2013-08-09 22:22:00,70.0,65.6,29.84,WSW,248,0.0,0.0,86,0.00,CLR,,0.33,WeatherDisplay:10.37,2013-08-10 02:22:00,
2013-08-09 22:27:00,69.8,65.8,29.84,WSW,248,0.0,0.0,87,0.00,CLR,,0.33,WeatherDisplay:10.37,2013-08-10 02:27:00,
2013-08-09 22:32:00,69.8,65.8,29.84,SW,225,0.0,0.0,87,0.00,CLR,,0.33,WeatherDisplay:10.37,2013-08-10 02:32:00,
2013-08-09 22:37:00,69.4,65.7,29.84,SSW,202,0.0,0.0,88,0.00,CLR,,0.33,WeatherDisplay:10.37,2013-08-10 02:37:00,
2013-08-09 22:42:00,69.1,65.4,29.84,SW,225,0.0,0.0,88,0.00,CLR,,0.33,WeatherDisplay:10.37,2013-08-10 02:42:00,
2013-08-09 22:47:00,68.9,65.5,29.85,SSW,202,0.0,0.0,89,0.00,CLR,,0.33,WeatherDisplay:10.37,2013-08-10 02:47:00,
2013-08-09 22:52:00,68.5,65.1,29.85,SW,225,0.0,0.0,89,0.00,CLR,,0.33,WeatherDisplay:10.37,2013-08-10 02:52:00,
2013-08-09 22:57:00,68.4,65.0,29.85,SW,225,0.0,0.0,89,0.00,CLR,,0.33,WeatherDisplay:10.37,2013-08-10 02:57:00,
2013-08-09 23:02:00,68.2,64.8,29.85,SW,225,0.0,0.0,89,0.00,CLR,,0.33,WeatherDisplay:10.37,2013-08-10 03:02:00,
2013-08-09 23:07:00,68.0,64.6,29.85,WSW,248,0.0,0.0,89,0.00,CLR,,0.33,WeatherDisplay:10.37,2013-08-10 03:07:00,
2013-08-09 23:12:00,67.6,64.6,29.85,WSW,248,2.7,2.7,90,0.00,CLR,,0.33,WeatherDisplay:10.37,2013-08-10 03:12:00,
2013-08-09 23:17:00,67.6,64.6,29.85,WSW,248,2.7,2.7,90,0.00,CLR,,0.33,WeatherDisplay:10.37,2013-08-10 03:17:00,
2013-08-09 23:22:00,67.6,64.9,29.86,West,270,3.5,3.5,91,0.00,CLR,,0.33,WeatherDisplay:10.37,2013-08-10 03:22:00,
2013-08-09 23:27:00,67.8,65.1,29.86,West,270,2.7,2.7,91,0.00,CLR,,0.33,WeatherDisplay:10.37,2013-08-10 03:27:00,
2013-08-09 23:32:00,67.8,65.1,29.86,SW,225,3.5,3.5,91,0.00,CLR,,0.33,WeatherDisplay:10.37,2013-08-10 03:32:00,
2013-08-09 23:37:00,67.8,65.1,29.86,SW,225,3.5,3.5,91,0.00,CLR,,0.33,WeatherDisplay:10.37,2013-08-10 03:37:00,
2013-08-09 23:42:00,67.8,65.1,29.86,WSW,248,3.2,3.2,91,0.00,CLR,,0.33,WeatherDisplay:10.37,2013-08-10 03:42:00,
2013-08-09 23:47:00,67.8,65.1,29.86,SW,225,2.7,2.7,91,0.00,CLR,,0.33,WeatherDisplay:10.37,2013-08-10 03:47:00,
2013-08-09 23:52:00,67.8,65.1,29.86,WSW,248,2.2,2.2,91,0.00,CLR,,0.33,WeatherDisplay:10.37,2013-08-10 03:52:00,
2013-08-09 23:57:00,67.6,64.9,29.87,WSW,248,0.0,0.0,91,0.00,CLR,,0.33,WeatherDisplay:10.37,2013-08-10 03:57:00,